Weather History for El Paso, TX

Change the Weather History Date:

Sunday, January 1, 2012

  Actual Average Record
Temperature  
Mean Temperature 48 °F 44 °F  
Max Temperature 58 °F 56 °F 77 °F (1910)
Min Temperature 37 °F 32 °F 5 °F (1881)
Degree Days  
Heating Degree Days 17 21  
Month to date heating degree days 17 21  
Since 1 July heating degree days 1114 1089  
Cooling Degree Days 0 0  
Month to date cooling degree days 0 0  
Year to date cooling degree days 0 0  
Moisture  
Dew Point 18 °F    
Average Humidity 40    
Maximum Humidity 62    
Minimum Humidity 17    
Precipitation  
Precipitation 0.00 in 0.01 in 0.73 in (1880)
Month to date precipitation 0.00 0.01  
Year to date precipitation 0.00 0.01  
Snow  
Snow 0.00 in - - ()
Month to date snowfall 0.0  
Since 1 July snowfall 3.1  
Snow Depth 0.00 in    
Sea Level Pressure  
Sea Level Pressure 30.42 in    
Wind  
Wind Speed 8 mph (ENE)    
Max Wind Speed 18 mph    
Max Gust Speed 22 mph    
Visibility 10 miles    
Events      
T = Trace of Precipitation, MM = Missing Value Source: NWS Daily Summary

Daily Weather History Graph

Daily Weather History Graph

Search for Another Location

Airport:

Trip Planner

Search our weather history database for the weather conditions in past years. The results will help you decide how hot, cold, wet, or windy it might be!

Date:

Astronomy

Jan. 01, 2012 Rise Set
Actual Time 7:05 AM MST 5:12 PM MST
Civil Twilight 6:38 AM MST 5:39 PM MST
Nautical Twilight 6:08 AM MST 6:09 PM MST
Astronomical Twilight 5:38 AM MST 6:39 PM MST
Moon 11:50 AM MST (1/1) 12:17 AM MST (1/1)
Length of Visible Light 11h 00m
Length of Day
10h 06m
First Quarter, 55% of the Moon is Illuminated
Jan 1
First Quarter
Jan 9
Full
Jan 16
Last Quarter
Jan 23
New
Jan 30
First Quarter

Hourly Weather History & Observations

Time (MST) Temp. Windchill Dew Point Humidity Pressure Visibility Wind Dir Wind Speed Gust Speed Precip Events Conditions
12:51 AM 48.0 °F - 30.9 °F 52% 30.19 in 10.0 mi North 16.1 mph - N/A   Clear
1:51 AM 45.0 °F 38.2 °F 32.0 °F 60% 30.22 in 10.0 mi North 15.0 mph - N/A   Clear
2:51 AM 45.0 °F 40.6 °F 27.0 °F 49% 30.27 in 10.0 mi East 8.1 mph - N/A   Clear
3:51 AM 41.0 °F 35.2 °F 21.9 °F 47% 30.32 in 10.0 mi SE 9.2 mph - N/A   Clear
4:51 AM 43.0 °F 39.5 °F 19.0 °F 38% 30.34 in 10.0 mi ESE 5.8 mph - N/A   Clear
5:51 AM 39.0 °F 34.0 °F 19.0 °F 45% 30.40 in 10.0 mi SE 6.9 mph - N/A   Clear
6:51 AM 39.0 °F 34.8 °F 17.1 °F 41% 30.44 in 10.0 mi East 5.8 mph - N/A   Clear
7:51 AM 41.0 °F 36.4 °F 17.6 °F 39% 30.53 in 10.0 mi East 6.9 mph - N/A   Clear
8:51 AM 43.0 °F 40.3 °F 16.0 °F 34% 30.51 in 10.0 mi East 4.6 mph - N/A   Clear
9:51 AM 46.9 °F - 15.1 °F 28% 30.51 in 10.0 mi East 10.4 mph - N/A   Clear
10:51 AM 50.0 °F - 15.1 °F 25% 30.49 in 10.0 mi ENE 11.5 mph - N/A   Clear
11:51 AM 51.8 °F - 15.8 °F 24% 30.53 in 10.0 mi East 6.9 mph - N/A   Clear
12:51 PM 54.0 °F - 14.0 °F 21% 30.43 in 10.0 mi East 6.9 mph - N/A   Partly Cloudy
1:51 PM 55.9 °F - 14.0 °F 19% 30.40 in 10.0 mi ENE 5.8 mph - N/A   Partly Cloudy
2:51 PM 57.0 °F - 14.0 °F 18% 30.39 in 10.0 mi East 4.6 mph - N/A   Partly Cloudy
3:51 PM 57.9 °F - 14.0 °F 18% 30.39 in 10.0 mi Variable 4.6 mph - N/A   Clear
4:51 PM 55.0 °F - 15.1 °F 21% 30.40 in 10.0 mi East 6.9 mph - N/A   Clear
5:51 PM 48.0 °F - 17.1 °F 29% 30.43 in 10.0 mi East 6.9 mph - N/A   Clear
6:51 PM 44.1 °F 39.5 °F 17.1 °F 34% 30.46 in 10.0 mi East 8.1 mph - N/A   Clear
7:51 PM 42.1 °F 37.1 °F 17.1 °F 37% 30.46 in 10.0 mi East 8.1 mph - N/A   Clear
8:51 PM 42.1 °F 40.2 °F 17.1 °F 37% 30.47 in 10.0 mi NNE 3.5 mph - N/A   Clear
9:51 PM 42.8 °F 39.3 °F 17.6 °F 36% 30.52 in 10.0 mi North 5.8 mph - N/A   Clear
10:51 PM 39.2 °F 35.0 °F 17.6 °F 42% 30.53 in 10.0 mi North 5.8 mph - N/A   Clear
11:51 PM 37.0 °F 32.4 °F 19.0 °F 48% 30.48 in 10.0 mi NNE 5.8 mph - N/A   Clear